Tracking 35055 objects as of 18-Aug-2026
HD Live streaming from Space Station
objects crossing your sky now

SPIRIT


SPIRIT is no longer on orbit
SPIRIT is classified as:


NORAD ID: 58468
Int'l Code: 2023-185G
Launch date: December 1, 2023
Source: Australia (AUS)
Launch site: AIR FORCE WESTERN TEST RANGE (AFWTR)
Decay date: 2026-08-02

Uplink (MHz):
Downlink (MHz): 401.895
Beacon (MHz):
Mode: 9k6 FSK
Call sign:
Status: Active

Your satellite tracking list
Your tracking list is empty




NASA's NSSDC Master Catalog

Two Line Element Set (TLE):
1 58468U 23185G   26213.60561876  .06744580  24838-5  47046-3 0  9991
2 58468  97.3119 302.7880 0014157 311.8558  48.1532 16.39916138149835
Source of the keplerian elements: AFSPC